Вернуться в каталог

TIROS 3

АктивенПогодаLEO
NORAD 162·PAYLOAD·🇺🇸 United States

Запущен Jul 12, 1961 с Cape Canaveral Space Force Station

Loading…

Ближайшие Пролёты (ближайшие 24 часа)

TLE

СвежийSource: Space-Track

Эпоха: Sep 14, 2026, 13:23 UTC

1 00162U 61017A   26257.55793045 -.00000030  00000-0  37598-4 0  9994
2 00162  47.9003 322.4327 0043725 350.8372   9.1720 14.45418603404706

Отслеживайте TIROS 3 в реальном времени с AllMySat

Download on the App Store